Flight Track Log - Related Links

Times and Time Zones

All times are in EDT time to prevent confusion due to time zone crossing. See the N431EH flight status page for this flight to view local times or setup timezone preferences in your user account.

Time Position Orientation Groundspeed Altitude Reporting Facility
EDT Latitude Longitude Course Direction KTS MPH feet Rate Location/Type
Tue 05:05:18 PM 41.1818 -104.9225 295° West 264 304 10,600  Level FlightAware ADS-B (EGNT / NCL)
Tue 05:05:57 PM 41.1968 -104.9651 295° West 304 350 11,800 2,451 Climbing FlightAware ADS-B (EGNT / NCL)
Tue 05:06:29 PM 41.2153 -105.0174 295° West 312 359 13,500 4,308 Climbing FlightAware ADS-B (EGNT / NCL)
Tue 05:07:15 PM 41.2488 -105.1124 295° West 291 335 17,400 4,974 Climbing FlightAware ADS-B (EGNT / NCL)
Tue 05:07:45 PM 41.2661 -105.1614 295° West 272 313 19,800 3,370 Climbing FlightAware ADS-B (EGNT / NCL)
Tue 05:08:28 PM 41.2904 -105.2297 295° West 306 352 21,500 2,222 Climbing FlightAware ADS-B (EGNT / NCL)
Tue 05:09:06 PM 41.3118 -105.2903 295° West 328 377 22,800 1,250 Climbing FlightAware ADS-B (EGNT / NCL)
Tue 05:09:40 PM 41.3358 -105.3589 295° West 349 402 23,000 143 Climbing FlightAware ADS-B (EGNT / NCL)
Tue 05:10:30 PM 41.3722 -105.4628 295° West 373 429 23,000  Level FlightAware ADS-B (EGNT / NCL)
Tue 05:11:16 PM 41.3980 -105.5367 295° West 381 438 23,000  Level FlightAware ADS-B (EGNT / NCL)
Tue 05:11:46 PM 41.4287 -105.6247 295° West 386 444 23,000  Level FlightAware ADS-B (EGNT / NCL)
Tue 05:12:45 PM 41.4691 -105.7411 295° West 387 445 23,000  Level FlightAware ADS-B (EGNT / NCL)
Tue 05:13:20 PM 41.4940 -105.8130 295° West 388 447 23,000  Level FlightAware ADS-B (EGNT / NCL)
Tue 05:13:50 PM 41.5207 -105.8907 294° West 384 442 23,000 -930 Level FlightAware ADS-B (EGNT / NCL)
Tue 05:14:31 PM 41.5513 -105.9806 294° West 389 448 21,900 -1,808 Descending FlightAware ADS-B (EGNT / NCL)
Tue 05:15:03 PM 41.5737 -106.0517 292° West 393 452 20,800 -1,890 Descending FlightAware ADS-B (EGNT / NCL)
Tue 05:15:44 PM 41.5981 -106.1361 292° West 388 447 19,600 -1,689 Descending Denver Center
Tue 05:16:46 PM 41.6353 -106.2639 291° West 386 444 17,900 -1,645 Descending Denver Center
Tue 05:17:48 PM 41.6772 -106.4061 292° West 374 430 16,200 -1,548 Descending Denver Center
Tue 05:18:50 PM 41.7097 -106.5244 290° West 352 405 14,700 -1,210 Descending Denver Center
Tue 05:19:52 PM 41.7422 -106.6353 291° West 343 395 13,700 -1,024 Descending Denver Center
Tue 05:20:53 PM 41.7783 -106.7469 293° West 310 357 12,600 -1,463 Descending Denver Center
Tue 05:21:55 PM 41.8008 -106.8331 289° West 277 319 10,700 -1,839 Descending Denver Center

Login

Don't have an account? Register now (free) for customized features, flight alerts, and more!